• In Hungary
  • List of Countries
  • For 7 days
  • Water Temperature
  • Satellite Maps
  • Weather Map
  • News
  • Weather Widgets
  • user-avatar
    Login

    Hourly Weather Zaplavskaya

    Today, 18 December, Monday

    Time Temperature Precipitation Wind Pressure Humidity
    00:00 +5°C° 0.1 mm 5 mps 762 mmHg 82%
    01:00 +5°C° 0.1 mm 5 mps 762 mmHg 83%
    02:00 +5°C° 0.1 mm 5 mps 762 mmHg 83%
    03:00 +5°C° 0 mm 5 mps 761 mmHg 84%
    04:00 +4°C° 0.2 mm 6 mps 761 mmHg 84%
    05:00 +4°C° 0.2 mm 6 mps 761 mmHg 85%
    06:00 +4°C° 0.2 mm 6 mps 761 mmHg 86%
    07:00 +4°C° 0.2 mm 6 mps 760 mmHg 86%
    08:00 +5°C° 0.2 mm 7 mps 760 mmHg 87%
    09:00 +5°C° 0 mm 7 mps 760 mmHg 87%
    10:00 +5°C° 0.1 mm 7 mps 760 mmHg 85%
    11:00 +6°C° 0.1 mm 7 mps 760 mmHg 83%
    12:00 +6°C° 0.1 mm 7 mps 760 mmHg 81%
    13:00 +8°C° 0.1 mm 7 mps 760 mmHg 79%
    14:00 +8°C° 0.1 mm 7 mps 760 mmHg 77%
    15:00 +8°C° 0.1 mm 6 mps 760 mmHg 76%
    16:00 +8°C° 0 mm 6 mps 760 mmHg 76%
    17:00 +8°C° 0 mm 6 mps 760 mmHg 76%
    18:00 +8°C° 0 mm 6 mps 761 mmHg 77%
    19:00 +8°C° 0.1 mm 5 mps 761 mmHg 80%
    20:00 +8°C° 0.1 mm 5 mps 761 mmHg 84%
    21:00 +8°C° 0.1 mm 4 mps 761 mmHg 88%
    22:00 +7°C° 0.3 mm 4 mps 761 mmHg 89%
    23:00 +8°C° 0.3 mm 3 mps 761 mmHg 89%

    Tomorrow, 19 December, Tuesday

    Time Temperature Precipitation Wind Pressure Humidity
    00:00 +8°C° 0.3 mm 2 mps 761 mmHg 90%
    01:00 +7°C° 0.5 mm 2 mps 762 mmHg 90%
    02:00 +7°C° 0.5 mm 2 mps 762 mmHg 90%
    03:00 +7°C° 0.5 mm 2 mps 762 mmHg 89%
    04:00 +7°C° 1.1 mm 1 mps 762 mmHg 90%
    05:00 +7°C° 1.1 mm 1 mps 762 mmHg 90%
    06:00 +7°C° 1.1 mm 1 mps 762 mmHg 91%
    07:00 +7°C° 1.4 mm 1 mps 762 mmHg 91%
    08:00 +7°C° 1.4 mm 1 mps 762 mmHg 91%
    09:00 +7°C° 1.4 mm 1 mps 763 mmHg 92%
    10:00 +7°C° 1 mm 1 mps 763 mmHg 90%
    11:00 +7°C° 1 mm 1 mps 763 mmHg 88%
    12:00 +7°C° 1 mm 1 mps 763 mmHg 86%
    13:00 +7°C° 0.1 mm 1 mps 763 mmHg 83%
    14:00 +6°C° 0.1 mm 2 mps 763 mmHg 80%
    15:00 +6°C° 0.1 mm 2 mps 764 mmHg 76%
    16:00 +5°C° 0 mm 2 mps 764 mmHg 78%
    17:00 +5°C° 0 mm 2 mps 764 mmHg 79%
    18:00 +5°C° 0 mm 1 mps 764 mmHg 81%
    19:00 +4°C° 0 mm 2 mps 765 mmHg 81%
    20:00 +3°C° 0 mm 2 mps 765 mmHg 81%
    21:00 +3°C° 0 mm 2 mps 765 mmHg 81%
    22:00 +3°C° 0 mm 2 mps 765 mmHg 80%
    23:00 +3°C° 0 mm 2 mps 766 mmHg 78%

    Day after tomorrow, 20 December, Wednesday

    Time Temperature Precipitation Wind Pressure Humidity
    00:00 +4°C° 0 mm 1 mps 766 mmHg 77%
    01:00 +4°C° 0 mm 1 mps 766 mmHg 77%
    02:00 +4°C° 0 mm 1 mps 767 mmHg 77%
    03:00 +4°C° 0 mm 1 mps 767 mmHg 77%
    04:00 +4°C° 0 mm 1 mps 767 mmHg 78%
    05:00 +4°C° 0 mm 1 mps 767 mmHg 79%
    06:00 +4°C° 0 mm 1 mps 767 mmHg 79%
    07:00 +4°C° 0 mm 1 mps 768 mmHg 79%
    08:00 +3°C° 0 mm 0 mps 768 mmHg 80%
    09:00 +3°C° 0 mm 0 mps 768 mmHg 80%
    10:00 +3°C° 0 mm 0 mps 768 mmHg 76%
    11:00 +4°C° 0 mm 0 mps 769 mmHg 73%
    12:00 +5°C° 0 mm 0 mps 769 mmHg 70%
    13:00 +6°C° 0.1 mm 1 mps 769 mmHg 70%
    14:00 +6°C° 0.1 mm 1 mps 769 mmHg 70%
    15:00 +6°C° 0.1 mm 1 mps 769 mmHg 69%
    16:00 +6°C° 0.2 mm 1 mps 769 mmHg 72%
    17:00 +5°C° 0.2 mm 1 mps 769 mmHg 75%
    18:00 +5°C° 0.2 mm 1 mps 769 mmHg 78%
    19:00 +5°C° 0.5 mm 1 mps 769 mmHg 80%
    20:00 +5°C° 0.5 mm 1 mps 769 mmHg 81%
    21:00 +4°C° 0.5 mm 2 mps 769 mmHg 83%
    22:00 +4°C° 0.4 mm 2 mps 769 mmHg 85%
    23:00 +5°C° 0.4 mm 1 mps 769 mmHg 86%

    21 December, Thursday

    Time Temperature Precipitation Wind Pressure Humidity
    00:00 +5°C° 0.4 mm 1 mps 769 mmHg 88%
    01:00 +4°C° 0.3 mm 2 mps 770 mmHg 88%
    02:00 +4°C° 0.3 mm 2 mps 770 mmHg 88%
    03:00 +4°C° 0.3 mm 2 mps 770 mmHg 89%
    04:00 +3°C° 0.1 mm 2 mps 770 mmHg 88%
    05:00 +3°C° 0.1 mm 2 mps 770 mmHg 88%
    06:00 +3°C° 0.1 mm 2 mps 770 mmHg 87%
    07:00 +3°C° 0 mm 2 mps 770 mmHg 86%
    08:00 +3°C° 0 mm 2 mps 771 mmHg 86%
    09:00 +3°C° 0 mm 2 mps 771 mmHg 85%
    10:00 +3°C° 0 mm 2 mps 771 mmHg 80%
    11:00 +4°C° 0 mm 2 mps 771 mmHg 75%
    12:00 +5°C° 0 mm 2 mps 771 mmHg 70%
    13:00 +5°C° 0 mm 2 mps 770 mmHg 68%
    14:00 +5°C° 0 mm 2 mps 770 mmHg 65%
    15:00 +5°C° 0 mm 2 mps 770 mmHg 63%
    16:00 +4°C° 0 mm 2 mps 770 mmHg 66%
    17:00 +3°C° 0 mm 2 mps 770 mmHg 69%
    18:00 +3°C° 0 mm 1 mps 770 mmHg 72%
    19:00 +3°C° 0 mm 1 mps 770 mmHg 74%
    20:00 +3°C° 0 mm 1 mps 769 mmHg 75%
    21:00 +2°C° 0 mm 1 mps 769 mmHg 77%
    22:00 +2°C° 0 mm 1 mps 769 mmHg 78%
    23:00 +2°C° 0 mm 1 mps 769 mmHg 78%

    22 December, Friday

    Time Temperature Precipitation Wind Pressure Humidity
    00:00 +1°C° 0 mm 1 mps 768 mmHg 79%
    01:00 +1°C° 0 mm 1 mps 768 mmHg 80%
    02:00 +1°C° 0 mm 1 mps 767 mmHg 80%
    03:00 +1°C° 0 mm 1 mps 767 mmHg 81%
    04:00 +1°C° 0 mm 1 mps 767 mmHg 81%
    05:00 +1°C° 0 mm 1 mps 766 mmHg 82%
    06:00 +1°C° 0 mm 1 mps 766 mmHg 83%
    07:00 +1°C° 0 mm 1 mps 766 mmHg 83%
    08:00 +1°C° 0 mm 1 mps 765 mmHg 83%
    09:00 +1°C° 0 mm 1 mps 765 mmHg 83%
    10:00 +2°C° 0 mm 1 mps 765 mmHg 78%
    11:00 +2°C° 0 mm 1 mps 765 mmHg 74%
    12:00 +2°C° 0 mm 2 mps 764 mmHg 70%
    13:00 +2°C° 0 mm 2 mps 764 mmHg 69%
    14:00 +2°C° 0 mm 2 mps 764 mmHg 67%
    15:00 +1°C° 0 mm 3 mps 763 mmHg 65%
    16:00 +1°C° 0 mm 2 mps 764 mmHg 66%
    17:00 -1°C° 0 mm 2 mps 764 mmHg 68%
    18:00 -1°C° 0 mm 2 mps 764 mmHg 70%
    19:00 -2°C° 0 mm 2 mps 764 mmHg 69%
    20:00 0°C° 0 mm 1 mps 764 mmHg 68%
    21:00 0°C° 0 mm 1 mps 764 mmHg 68%
    22:00 -2°C° 0 mm 2 mps 764 mmHg 67%
    23:00 -2°C° 0 mm 2 mps 763 mmHg 66%

    23 December, Saturday

    Time Temperature Precipitation Wind Pressure Humidity
    00:00 -2°C° 0 mm 2 mps 763 mmHg 65%
    01:00 -2°C° 0 mm 2 mps 763 mmHg 65%
    02:00 -2°C° 0 mm 2 mps 763 mmHg 65%
    03:00 -2°C° 0 mm 3 mps 762 mmHg 65%
    04:00 -2°C° 0 mm 3 mps 762 mmHg 66%
    05:00 -2°C° 0 mm 3 mps 762 mmHg 66%
    06:00 -2°C° 0 mm 3 mps 761 mmHg 66%
    07:00 -1°C° 0 mm 3 mps 761 mmHg 68%
    08:00 -2°C° 0 mm 4 mps 761 mmHg 69%
    09:00 -2°C° 0 mm 4 mps 761 mmHg 70%
    10:00 -1°C° 0 mm 4 mps 760 mmHg 70%
    11:00 0°C° 0 mm 4 mps 760 mmHg 70%
    12:00 +1°C° 0 mm 5 mps 760 mmHg 71%
    13:00 +1°C° 0 mm 4 mps 760 mmHg 73%
    14:00 +2°C° 0 mm 3 mps 759 mmHg 75%
    15:00 +3°C° 0 mm 2 mps 759 mmHg 77%
    16:00 +2°C° 0 mm 2 mps 759 mmHg 81%
    17:00 +1°C° 0 mm 2 mps 758 mmHg 85%
    18:00 +1°C° 0 mm 2 mps 758 mmHg 89%
    19:00 +1°C° 0 mm 2 mps 758 mmHg 91%
    20:00 -1°C° 0 mm 2 mps 758 mmHg 92%
    21:00 +1°C° 0 mm 1 mps 758 mmHg 93%
    22:00 +1°C° 0 mm 1 mps 758 mmHg 93%
    23:00 +1°C° 0 mm 1 mps 758 mmHg 93%
    Show more